STARLINK-34453

Last updated on Thu Jul 03 2025 00:02:07 GMT+0000 (Coordinated Universal Time)

1 64441U 25130D 25183.58335648 -.01108649 00000+0 -78438-2 0 9993 2 64441 53.1594 179.8017 0001121 62.3807 44.6885 15.75899803 3465
UTC large
Height (km)
Speed (km/s)
/
Latitude / Longitude
Inclination (degrees)
Orbital Period (minutes)
Azimuth
Elevation
Range (km)
Doppler Factor

Next 0 passes for location: London (51.5072 / 0.1276)

Sorry there are no passes over London.